Regional Weather Roundup
Issued by NWS

Home | Current Version | Previous Version | Graphics & Text | Print | Product List | Glossary Off
Versions: 1 2 3 4 5 6 7 8 9 10 11 12 13 14 15 16 17 18 19 20 21 22 23 24 25 26 27 28 29 30 31 32 33 34 35 36 37 38 39 40 41 42 43 44 45 46 47 48 49 50

000
ASUS45 KBOI 072210
RWRID

IDAHO REGIONAL WEATHER ROUNDUP
NATIONAL WEATHER SERVICE BOISE ID
300 PM MST SUN FEB 07 2016

NOTE: "FAIR" INDICATES FEW OR NO CLOUDS BELOW 12000 FEET
WITH NO SIGNIFICANT WEATHER AND/OR OBSTRUCTIONS TO VISIBILITY

IDZ012-014-072300-
SOUTHWEST IDAHO


CITY           SKY/WX    TMP DP  RH WIND       PRES   REMARKS
BOISE          SUNNY     47  34  60 NW8       30.59F
CALDWELL       SUNNY     46  35  65 W6        30.61F
MOUNTAIN HOME  SUNNY     48  46  95 NW5       30.58F
$$

IDZ016-017-072300-
SOUTHCENTRAL IDAHO


CITY           SKY/WX    TMP DP  RH WIND       PRES   REMARKS
BURLEY         MOSUNNY   40  31  70 NW6       30.56F
JEROME         MOSUNNY   34  29  82 N7        30.58F WCI  28
TWIN FALLS     MOSUNNY   42  36  79 CALM      30.57S
$$

IDZ019>023-072300-
SOUTHEAST IDAHO


CITY           SKY/WX    TMP DP  RH WIND       PRES   REMARKS
IDAHO FALLS    CLOUDY    24  21  88 N6        30.59R FOG     WCI  17
POCATELLO      CLOUDY    33  25  72 W6        30.59S WCI  28
REXBURG        CLOUDY    25  23  92 SW6       30.57S WCI  18
$$

IDZ006-010-011-018-031-032-072300-
CENTRAL IDAHO MOUNTAINS


CITY           SKY/WX    TMP DP  RH WIND       PRES   REMARKS
MCCALL         SUNNY     33  27  78 SE5       30.55F WCI  29
HAILEY         MOSUNNY   30  21  69 SE9       30.54F WCI  22
STANLEY          N/A     36  18  48 CALM      30.54F
SALMON         CLOUDY    27  16  63 CALM      30.59F
CHALLIS        SUNNY     30  17  58 CALM      30.55F
$$

IDZ002-004-006-007-026-072300-
NORTHERN IDAHO


CITY           SKY/WX    TMP DP  RH WIND       PRES   REMARKS
LEWISTON       MOSUNNY   46  33  60 NW5       30.61F
LOWELL           N/A     47  35  63 N3        30.62F
COEUR D`ALENE  PTSUNNY   43  30  61 CALM      30.57S
MULLAN PASS    CLOUDY    29  19  66 VRB3      30.50R
$$



USA.gov is the U.S. government's official web portal to all federal, state and local government web resources and services.